Probability
0 0 0 0 0 0 0 0 0 0 0 0 0 0 0 0 0 0 0 0 0 0 0 0 0 0 3 6 10 10 13 10 6 3 3 0 0 0 0 3 3 3 0
0 0 0 0 0 0 0 0 0 0 0 0 0 0 0 0 0 0 0 0 0 0 0 0 0 0 3 6 6 10 10 10 10 6 3 0 0 0 0 0 0 0 0
0 0 0 0 0 0 0 0 0 0 0 0 0 0 0 0 0 0 0 0 0 0 0 0 0 0 3 3 3 3 6 10 10 6 3 0 0 0 0 0 0 0 0
0 0 0 0 0 0 0 0 0 0 0 0 0 0 0 0 0 0 0 0 0 0 0 0 0 0 0 3 3 3 6 6 3 3 3 0 0 0 0 0 0 0 0
0 0 0 0 0 0 0 0 0 0 0 0 0 0 0 0 0 0 0 0 0 0 0 0 0 0 0 0 0 3 6 3 0 0 3 0 0 0 0 0 0 0 0
0 0 0 0 0 0 0 0 0 0 0 0 0 0 0 0 0 0 0 0 0 0 0 0 0 0 0 0 0 0 0 3 0 0 0 0 0 0 0 0 0 0 0
0 0 0 0 0 0 0 0 0 0 0 0 0 0 0 0 0 0 0 0 0 0 0 0 0 0 0 0 0 0 0 0 0 0 0 0 0 0 0 0 0 0 0
0 0 0 0 0 0 0 0 0 0 0 0 0 0 0 0 0 0 0 0 0 0 0 0 0 0 0 0 0 0 0 0 0 0 0 0 0 0 0 0 0 0 0
0 0 0 0 0 0 0 0 0 0 0 0 0 0 0 0 0 0 0 0 0 0 0 0 0 0 0 0 0 0 0 0 0 0 0 0 0 0 0 0 0 0 0
0 0 0 0 0 0 0 0 0 0 0 0 0 0 0 0 0 0 0 0 0 0 0 0 0 0 0 0 0 0 0 0 0 0 0 0 0 0 0 0 0 0 0
0 0 0 0 0 0 0 0 0 0 0 0 0 0 0 0 0 0 0 0 0 0 0 0 0 0 0 0 0 0 0 0 0 0 0 0 0 0 0 0 0 0 0
0 0 0 0 0 0 0 0 0 0 0 0 0 0 0 0 0 0 0 0 0 0 0 0 0 0 0 0 0 0 0 0 0 0 0 0 0 0 0 0 0 0 0
0 0 0 0 0 0 0 0 0 0 0 0 0 0 0 0 0 0 0 0 0 0 0 0 0 0 0 0 0 0 0 0 0 0 0 0 0 0 0 0 0 0 0
0 0 0 0 0 0 0 0 0 0 0 0 0 0 0 0 0 0 0 0 0 0 0 0 0 0 0 0 0 0 0 0 0 0 0 0 0 0 0 0 0 0 0
0 0 0 0 0 0 0 0 0 0 0 0 0 0 0 0 0 0 0 0 0 0 0 0 0 0 0 0 0 0 0 0 0 0 0 0 0 0 0 0 0 0 0
0 0 0 0 0 0 0 0 0 0 0 0 0 0 0 0 0 0 0 0 0 0 0 0 0 0 0 0 0 0 0 0 0 0 0 0 0 0 0 0 0 0 0
0 0 0 0 0 0 0 0 0 0 0 0 0 0 0 0 0 0 0 0 0 0 0 0 0 0 0 0 0 0 0 0 0 0 0 0 0 0 0 0 0 0 0
0 0 0 0 0 0 0 0 0 0 0 0 0 0 0 0 0 0 0 0 0 0 0 0 0 0 0 0 0 0 0 0 0 0 0 0 0 0 0 0 0 0 0
0 0 0 0 0 0 0 0 0 0 0 0 0 0 0 0 0 0 0 0 0 0 0 0 0 0 0 0 0 0 0 0 0 0 0 0 0 0 0 0 0 0 0
0 0 0 0 0 0 0 0 0 0 0 0 0 0 0 0 0 0 0 0 0 0 0 0 0 0 0 0 0 0 0 0 0 0 0 0 0 0 0 0 0 0 0
0 0 0 0 0 0 0 0 0 0 0 0 0 0 0 0 0 0 0 0 0 0 0 0 0 0 0 0 0 0 0 0 0 0 0 0 0 0 0 0 0 0 0
0 0 0 0 0 0 0 0 0 0 0 0 0 0 0 0 0 0 0 0 0 0 0 0 0 0 0 0 0 0 0 0 0 0 0 0 0 0 0 0 0 0 0
0 0 0 0 0 0 0 0 0 0 0 0 0 0 0 0 0 0 0 0 0 0 0 0 0 0 0 0 0 0 0 0 0 0 0 0 0 0 0 0 0 0 0
0 0 0 0 0 0 0 0 0 0 0 0 0 0 0 0 0 0 0 0 0 0 0 0 0 0 0 0 0 0 0 0 0 0 0 0 0 0 0 0 0 0 0
0 0 0 0 0 0 0 0 0 0 0 0 0 0 0 0 0 0 0 0 0 0 0 0 0 0 0 0 0 0 0 0 0 0 0 0 0 0 0 0 0 0 0
0 0 0 0 0 0 0 0 0 0 0 0 0 0 0 0 0 0 0 0 0 0 0 0 0 0 0 0 0 0 0 0 0 0 0 0 0 0 0 0 0 0 0
Height
5794 5794 5793 5792 5791 5790 5790 5789 5788 5787 5787 5786 5786 5785 5785 5785 5785 5785 5785 5785 5785 5786 5787 5787 5788 5788 5788 5788 5788 5788 5788 5789 5790 5791 5792 5793 5794 5794 5795 5795 5796 5796 5796
5787 5786 5785 5784 5783 5782 5781 5781 5780 5779 5778 5778 5777 5777 5777 5777 5776 5777 5777 5777 5777 5778 5779 5779 5780 5780 5780 5780 5780 5781 5781 5782 5783 5784 5785 5786 5787 5787 5788 5789 5789 5790 5790
5779 5778 5777 5776 5775 5774 5773 5773 5772 5771 5770 5769 5769 5768 5768 5768 5768 5768 5768 5769 5769 5770 5770 5771 5771 5772 5772 5773 5773 5774 5774 5775 5776 5777 5778 5779 5780 5781 5782 5783 5783 5783 5784
5772 5771 5770 5769 5768 5767 5765 5764 5764 5763 5762 5761 5760 5760 5760 5760 5760 5760 5760 5760 5761 5761 5762 5762 5763 5764 5765 5765 5766 5767 5767 5768 5769 5770 5771 5772 5773 5774 5775 5776 5777 5777 5778
5765 5763 5762 5761 5760 5759 5758 5757 5756 5755 5754 5753 5753 5752 5752 5752 5752 5752 5752 5752 5752 5753 5753 5754 5755 5756 5757 5758 5759 5760 5761 5761 5762 5763 5765 5766 5767 5768 5769 5770 5771 5771 5772
5758 5756 5755 5754 5753 5751 5750 5750 5749 5748 5747 5746 5745 5744 5744 5744 5744 5744 5745 5745 5745 5745 5745 5746 5747 5749 5750 5751 5752 5753 5755 5756 5757 5758 5759 5760 5761 5762 5763 5764 5765 5766 5766
5751 5749 5748 5747 5745 5745 5743 5743 5742 5741 5740 5739 5738 5737 5737 5737 5736 5737 5737 5737 5737 5738 5739 5740 5741 5742 5743 5745 5746 5748 5749 5750 5751 5752 5753 5755 5756 5757 5758 5759 5760 5761 5761
5744 5742 5741 5740 5739 5738 5737 5736 5735 5734 5733 5732 5731 5731 5730 5730 5730 5730 5730 5730 5731 5732 5733 5734 5735 5737 5738 5739 5741 5743 5744 5745 5746 5747 5749 5750 5751 5752 5753 5754 5755 5756 5756
5738 5736 5735 5733 5732 5731 5730 5729 5729 5728 5727 5726 5725 5725 5724 5724 5724 5724 5724 5725 5726 5727 5728 5729 5731 5732 5734 5735 5737 5738 5740 5741 5742 5744 5745 5746 5747 5748 5749 5751 5752 5752 5753
5732 5730 5729 5728 5726 5725 5724 5723 5723 5722 5721 5721 5720 5719 5719 5718 5718 5719 5719 5720 5721 5722 5723 5725 5727 5728 5730 5732 5733 5735 5736 5738 5739 5740 5741 5743 5744 5745 5746 5747 5748 5749 5750
5727 5725 5724 5723 5721 5720 5719 5718 5718 5717 5717 5716 5715 5715 5714 5714 5714 5714 5715 5716 5717 5718 5719 5721 5723 5725 5726 5728 5730 5732 5733 5735 5736 5737 5739 5740 5741 5742 5743 5744 5746 5747 5748
5723 5721 5720 5719 5717 5716 5715 5715 5714 5713 5713 5712 5712 5712 5711 5711 5711 5711 5711 5712 5713 5715 5716 5718 5720 5722 5724 5726 5728 5729 5731 5733 5734 5736 5737 5738 5739 5741 5742 5743 5744 5745 5746
5720 5718 5717 5715 5714 5713 5712 5711 5711 5710 5710 5710 5709 5709 5709 5708 5708 5708 5709 5710 5711 5713 5714 5716 5718 5720 5722 5724 5726 5728 5729 5731 5733 5735 5736 5737 5739 5740 5741 5742 5743 5744 5744
5717 5716 5715 5713 5712 5711 5710 5710 5709 5709 5708 5708 5708 5707 5707 5707 5707 5707 5708 5709 5710 5711 5713 5714 5717 5719 5721 5723 5725 5727 5729 5731 5733 5734 5736 5737 5738 5740 5741 5742 5743 5744 5744
5716 5714 5713 5712 5711 5710 5709 5709 5708 5708 5708 5708 5707 5707 5707 5707 5707 5707 5708 5709 5710 5711 5713 5714 5716 5719 5721 5723 5725 5727 5729 5731 5733 5735 5736 5738 5739 5740 5741 5742 5743 5743 5744
5715 5714 5713 5712 5711 5710 5709 5709 5709 5708 5708 5708 5708 5707 5707 5707 5707 5708 5709 5709 5711 5712 5714 5715 5717 5719 5721 5723 5725 5727 5730 5732 5734 5736 5737 5738 5740 5741 5742 5743 5743 5744 5744
5715 5714 5713 5712 5711 5711 5710 5710 5710 5710 5709 5709 5708 5708 5708 5709 5709 5710 5710 5711 5712 5714 5715 5717 5719 5721 5723 5725 5727 5729 5731 5733 5735 5737 5738 5740 5741 5742 5743 5744 5744 5745 5745
5716 5715 5714 5713 5713 5712 5712 5711 5711 5711 5710 5710 5710 5710 5710 5711 5711 5712 5712 5714 5715 5716 5718 5719 5721 5723 5725 5727 5729 5731 5733 5735 5737 5739 5740 5741 5742 5743 5744 5745 5745 5745 5745
5718 5717 5716 5715 5715 5714 5713 5713 5713 5712 5712 5712 5712 5712 5713 5713 5714 5715 5715 5717 5718 5719 5721 5722 5724 5726 5728 5730 5732 5734 5736 5738 5739 5741 5742 5743 5744 5745 5745 5745 5745 5745 5744
5720 5720 5719 5718 5717 5716 5716 5715 5715 5715 5715 5715 5715 5715 5715 5716 5717 5718 5719 5720 5721 5722 5724 5726 5727 5729 5731 5733 5735 5737 5739 5740 5742 5743 5744 5745 5746 5746 5746 5746 5746 5745 5744
5724 5723 5722 5721 5720 5720 5719 5718 5718 5718 5718 5718 5718 5718 5719 5719 5720 5721 5722 5723 5725 5726 5728 5729 5731 5733 5735 5736 5738 5740 5741 5743 5744 5745 5746 5746 5747 5747 5746 5746 5745 5744 5743
5727 5726 5725 5724 5724 5723 5722 5722 5722 5722 5721 5722 5722 5722 5723 5723 5724 5725 5727 5728 5729 5731 5732 5734 5735 5737 5738 5740 5742 5743 5744 5745 5746 5747 5747 5747 5747 5747 5747 5746 5745 5743 5742
5731 5730 5729 5728 5728 5727 5727 5727 5726 5726 5726 5726 5727 5727 5728 5729 5729 5730 5732 5733 5734 5735 5736 5738 5739 5741 5742 5743 5745 5746 5747 5748 5748 5748 5748 5748 5748 5747 5746 5745 5744 5742 5740
5735 5734 5734 5733 5732 5732 5732 5731 5731 5731 5731 5731 5732 5732 5733 5734 5735 5735 5736 5738 5739 5740 5741 5742 5743 5745 5746 5747 5747 5748 5749 5749 5749 5749 5749 5748 5748 5747 5746 5744 5742 5740 5738
5740 5739 5738 5738 5737 5737 5736 5736 5736 5736 5736 5736 5737 5737 5738 5738 5739 5740 5741 5742 5743 5744 5745 5746 5746 5747 5748 5749 5749 5750 5750 5750 5750 5749 5749 5748 5747 5746 5744 5742 5740 5738 5735
5744 5743 5742 5742 5742 5741 5741 5741 5741 5741 5741 5741 5741 5742 5742 5742 5743 5744 5745 5745 5746 5747 5747 5748 5749 5750 5750 5750 5751 5751 5751 5750 5750 5749 5748 5747 5746 5744 5742 5740 5737 5735 5732
Wind_Speed
26 26 27 28 28 28 28 29 29 29 29 30 30 31 31 31 31 31 31 31 31 30 30 30 30 31 31 31 31 30 30 31 30 29 29 30 31 30 30 30 30 31 31
26 27 28 28 28 28 28 29 29 29 30 30 31 31 31 31 31 32 32 32 32 31 31 30 30 30 30 29 28 28 28 28 29 29 29 29 29 29 29 30 29 28 28
27 27 27 27 28 28 28 29 29 29 29 30 30 30 29 30 30 31 31 31 31 31 31 30 30 29 28 27 27 26 26 27 27 27 27 28 28 28 28 27 27 27 27
27 27 27 28 28 28 28 28 28 29 29 29 29 29 29 30 30 30 30 30 30 30 30 30 29 29 28 27 27 26 26 26 26 26 26 27 27 26 26 25 26 26 25
26 26 27 27 28 27 27 27 28 28 28 28 29 29 29 29 28 29 29 29 29 29 28 28 27 27 26 26 26 25 24 24 24 24 24 24 24 25 24 24 24 24 24
26 27 27 27 27 27 26 26 26 26 27 27 27 28 28 28 28 28 27 27 27 27 26 25 24 24 23 23 23 22 21 21 22 22 21 21 22 22 21 22 22 22 22
25 26 26 25 25 25 24 25 25 25 26 26 25 26 26 26 26 26 25 25 24 23 22 22 21 21 21 21 21 20 19 19 19 19 19 19 19 19 19 19 19 20 20
25 25 24 24 23 23 23 23 22 23 23 23 23 22 23 22 22 22 23 22 20 20 20 19 19 18 19 18 18 17 16 15 15 16 16 16 16 16 16 15 15 15 16
23 22 22 22 22 22 22 22 21 21 21 21 21 20 20 20 19 18 18 17 18 17 17 17 16 15 15 15 15 14 14 14 13 13 13 13 13 13 13 12 12 12 12
20 20 20 20 20 20 20 19 18 18 18 18 18 18 18 17 16 16 15 15 16 16 16 15 15 14 13 13 13 12 12 12 12 12 12 12 11 11 11 11 10 10 9
17 17 17 17 17 17 16 15 14 14 14 14 14 14 14 14 13 13 13 13 13 13 13 13 13 12 12 11 11 10 9 10 11 10 10 9 9 8 9 9 9 8 7
14 13 12 13 13 12 12 11 11 10 11 11 11 11 10 10 10 10 10 10 10 10 10 10 10 10 10 10 9 9 9 8 8 7 7 6 6 6 6 5 5 4 4
10 10 10 10 9 9 8 8 7 7 7 7 7 7 7 8 7 7 7 7 8 8 8 9 9 9 9 9 8 8 8 8 8 7 6 5 5 5 4 4 4 3 2
7 7 7 7 6 6 6 5 5 4 4 4 4 4 4 4 4 4 4 5 6 7 7 9 9 8 8 8 8 7 8 8 7 7 7 6 5 5 5 5 4 3 2
6 6 5 4 4 4 3 3 2 2 2 2 2 1 1 2 3 3 4 4 5 6 7 9 9 9 9 9 9 9 9 9 9 8 7 7 7 7 6 5 4 4 3
5 4 4 4 4 3 2 2 2 2 1 1 1 1 2 3 4 5 5 6 7 8 9 9 10 10 11 11 11 11 11 11 10 9 9 8 8 7 7 6 6 5 4
5 5 4 4 3 3 3 3 4 4 3 3 3 3 4 4 5 6 6 7 9 10 10 11 12 12 12 13 13 13 13 12 11 11 10 10 9 9 8 7 6 5 4
6 6 5 5 5 5 5 5 4 5 5 5 5 5 6 6 7 8 8 9 11 12 12 12 13 13 14 14 15 15 14 13 13 12 11 10 10 9 8 6 5 5 5
8 8 8 7 7 7 6 6 6 6 6 6 7 7 8 8 9 10 10 11 12 13 13 12 13 14 15 15 15 15 15 14 13 12 11 10 9 7 6 6 5 5 5
10 9 9 9 8 8 8 8 8 8 8 8 8 9 9 9 10 11 12 13 13 13 13 14 14 15 15 16 15 15 14 13 12 11 10 8 7 6 6 5 5 6 7
11 10 10 9 10 10 10 10 10 10 10 10 10 11 11 12 13 13 13 14 14 14 14 15 15 15 16 16 15 14 13 12 11 10 9 8 6 5 5 5 6 7 8
11 11 11 11 11 11 11 12 12 12 12 13 14 14 15 15 15 15 15 15 15 14 15 15 15 15 15 15 14 13 12 11 9 8 7 6 5 5 5 5 7 8 9
13 13 13 13 13 13 13 13 13 14 14 14 15 15 16 16 16 15 15 15 15 15 15 15 15 14 13 12 12 11 10 9 8 7 6 5 4 4 5 6 8 9 11
13 13 13 13 13 14 14 14 14 13 14 14 14 14 15 15 14 14 14 14 14 15 14 14 13 12 11 11 10 9 8 6 5 4 4 3 4 5 6 8 10 12 14
12 12 12 12 12 12 12 12 12 12 13 13 13 13 13 13 13 13 13 13 13 13 12 11 11 10 9 9 8 6 5 4 3 2 3 4 5 6 8 10 12 14 16
11 11 11 11 11 11 11 11 11 11 11 11 11 11 11 11 11 11 11 11 10 10 9 9 8 7 7 6 4 3 2 1 2 3 4 6 7 9 10 13 15 17 19
Wind_Direction
270 271 272 272 272 271 272 272 272 272 273 273 273 272 271 270 269 269 268 267 266 265 265 265 266 267 268 269 268 265 262 260 261 261 261 261 263 264 266 266 268 267 269
270 271 272 273 274 273 273 273 273 273 273 272 272 272 270 269 269 269 269 268 266 265 265 265 266 266 266 266 266 264 263 261 261 260 260 260 261 262 264 267 269 269 272
271 270 271 273 275 275 275 275 274 273 273 272 272 271 271 270 269 269 269 268 266 265 265 265 265 263 264 263 263 263 262 261 260 261 260 259 260 262 264 266 268 270 273
274 273 274 275 276 277 276 276 275 274 275 274 272 270 270 270 270 270 270 270 267 266 265 265 264 262 262 262 262 261 261 261 261 261 261 259 260 261 263 266 268 270 273
275 277 278 278 278 278 277 277 276 275 275 274 273 271 270 270 270 270 270 270 269 267 265 264 263 262 261 261 260 260 261 261 260 260 261 259 258 260 263 264 266 269 272
280 281 280 279 279 279 278 278 278 277 276 276 274 273 272 270 270 270 270 269 268 266 265 262 261 260 259 258 258 259 259 258 259 259 260 260 260 261 262 265 267 271 275
282 281 280 280 279 277 277 277 277 276 276 276 276 274 272 271 271 270 270 270 268 264 261 259 258 257 256 255 253 253 256 256 255 256 257 258 260 262 264 266 268 273 276
281 281 280 281 280 279 278 277 278 278 277 276 276 274 273 271 270 270 269 266 264 263 261 259 257 255 253 251 249 249 252 253 253 254 255 255 256 260 264 267 270 272 272
282 282 283 283 283 282 280 279 279 279 278 276 274 272 271 272 273 270 265 262 260 259 259 258 255 254 251 248 247 248 249 248 250 252 250 251 251 254 254 258 263 267 271
283 284 285 285 285 284 283 281 279 279 277 275 274 272 272 272 269 266 260 257 255 254 253 250 248 247 246 244 244 244 243 244 245 246 247 249 250 252 249 250 256 260 261
290 289 286 286 286 284 283 282 280 278 276 275 274 273 272 271 269 265 258 253 249 250 247 243 238 236 234 233 234 236 233 232 233 237 238 237 237 242 249 253 248 244 251
295 293 290 289 288 285 284 282 282 279 275 272 273 273 270 267 268 263 250 245 239 240 234 230 227 223 220 218 216 215 214 215 216 216 215 218 221 227 232 225 217 218 231
301 298 294 293 292 292 287 282 282 280 277 268 267 268 266 264 264 250 239 235 229 229 220 214 207 202 199 197 200 204 200 201 197 193 192 192 189 186 182 178 179 184 198
315 310 308 307 305 303 299 291 287 285 279 271 269 272 265 257 239 221 214 208 212 207 197 185 179 176 175 177 181 183 177 175 176 175 170 165 160 158 157 160 164 167 165
334 331 330 333 334 329 333 331 319 301 293 277 284 291 233 199 189 179 169 169 173 170 165 164 166 168 170 169 166 163 158 155 153 152 150 150 148 144 142 142 138 130 114
350 351 357 4 360 3 19 39 60 79 64 59 71 109 135 137 139 135 141 147 149 149 152 153 154 155 154 153 151 149 146 145 146 144 142 141 138 132 127 119 113 104 93
13 14 19 22 35 49 66 80 81 84 84 85 85 103 118 119 119 127 130 134 137 139 141 141 142 143 144 145 145 143 140 139 139 136 131 127 122 120 117 110 101 90 73
42 43 45 52 66 75 81 85 90 90 91 96 99 104 120 120 119 121 123 127 129 130 132 133 133 135 136 137 136 135 133 133 131 129 125 122 119 116 111 103 91 75 54
59 63 65 67 69 72 75 82 90 94 94 96 101 108 114 114 115 117 120 122 126 127 128 130 129 128 130 131 129 128 128 127 126 125 124 122 118 113 104 93 75 52 31
66 67 68 70 72 74 76 83 90 93 94 95 102 108 110 113 115 115 117 120 123 124 125 126 126 127 128 128 127 126 126 125 124 124 122 117 111 104 92 74 51 31 16
66 69 72 74 77 78 80 85 91 94 96 96 101 106 108 111 113 114 115 117 118 120 122 124 125 127 127 127 127 126 123 121 119 117 113 109 101 90 72 51 32 16 5
69 70 72 76 80 83 86 89 92 93 96 97 100 103 105 109 112 114 116 118 118 119 122 124 125 125 125 125 124 122 121 118 115 111 105 99 88 71 49 30 16 6 359
72 73 74 79 85 89 92 94 95 96 98 101 102 105 107 110 112 115 116 117 119 120 120 121 120 120 119 121 122 120 117 113 108 102 93 81 65 44 25 11 2 355 350
72 74 77 81 86 89 91 93 95 96 98 102 105 106 108 110 111 113 115 116 116 117 117 118 119 120 121 122 121 118 113 108 101 90 73 51 29 11 360 353 348 344 341
72 74 77 82 85 87 89 90 93 97 101 104 106 108 109 110 113 115 117 118 119 121 123 123 123 124 125 124 120 116 110 99 83 55 26 6 353 346 343 341 339 337 336
74 77 79 82 85 88 90 90 92 96 100 103 107 110 112 113 115 118 121 123 125 127 128 129 129 129 131 128 120 111 90 49 9 347 339 336 333 333 333 333 332 331 331